����������;��������(kWh)
2018-03-05 00:00;88,2
2018-03-05 00:15;85,8
2018-03-05 00:30;82,2
2018-03-05 00:45;82,3
2018-03-05 01:00;82,2
2018-03-05 01:15;83,7
2018-03-05 01:30;80,45
2018-03-05 01:45;83,15
2018-03-05 02:00;82,2
2018-03-05 02:15;84
2018-03-05 02:30;86,5
2018-03-05 02:45;85,7
2018-03-05 03:00;86,9
2018-03-05 03:15;86,55
2018-03-05 03:30;85,55
2018-03-05 03:45;87,3
2018-03-05 04:00;85,05
2018-03-05 04:15;86,65
2018-03-05 04:30;85,75
2018-03-05 04:45;84,9
2018-03-05 05:00;84
2018-03-05 05:15;84,35
2018-03-05 05:30;86
2018-03-05 05:45;82
2018-03-05 06:00;84,1
2018-03-05 06:15;84,6
2018-03-05 06:30;81,3
2018-03-05 06:45;84,55
2018-03-05 07:00;86,1
2018-03-05 07:15;90,25
2018-03-05 07:30;143,7
2018-03-05 07:45;112,65
2018-03-05 08:00;107,65
2018-03-05 08:15;115,6
2018-03-05 08:30;113,25
2018-03-05 08:45;111,7
2018-03-05 09:00;124,55
2018-03-05 09:15;123,3
2018-03-05 09:30;133,9
2018-03-05 09:45;130,25
2018-03-05 10:00;130,55
2018-03-05 10:15;133,9
2018-03-05 10:30;135,1
2018-03-05 10:45;148,4
2018-03-05 11:00;147,4
2018-03-05 11:15;148,5
2018-03-05 11:30;159,5
2018-03-05 11:45;154,2
2018-03-05 12:00;155,1
2018-03-05 12:15;149
2018-03-05 12:30;150,2
2018-03-05 12:45;149,8
2018-03-05 13:00;151,25
2018-03-05 13:15;162,8
2018-03-05 13:30;165,85
2018-03-05 13:45;159,6
2018-03-05 14:00;149,9
2018-03-05 14:15;151,95
2018-03-05 14:30;154,6
2018-03-05 14:45;152,05
2018-03-05 15:00;143
2018-03-05 15:15;149,75
2018-03-05 15:30;144,55
2018-03-05 15:45;144,8
2018-03-05 16:00;142,95
2018-03-05 16:15;138,65
2018-03-05 16:30;140,75
2018-03-05 16:45;137,25
2018-03-05 17:00;140,8
2018-03-05 17:15;131,6
2018-03-05 17:30;134,9
2018-03-05 17:45;130,2
2018-03-05 18:00;135
2018-03-05 18:15;138,15
2018-03-05 18:30;130,6
2018-03-05 18:45;131,1
2018-03-05 19:00;138,2
2018-03-05 19:15;128
2018-03-05 19:30;129,25
2018-03-05 19:45;124,9
2018-03-05 20:00;121,5
2018-03-05 20:15;121,3
2018-03-05 20:30;116,5
2018-03-05 20:45;118,35
2018-03-05 21:00;112,4
2018-03-05 21:15;113,15
2018-03-05 21:30;106,6
2018-03-05 21:45;106,2
2018-03-05 22:00;102,15
2018-03-05 22:15;102,65
2018-03-05 22:30;102,25
2018-03-05 22:45;100,45
2018-03-05 23:00;107,8
2018-03-05 23:15;100,6
2018-03-05 23:30;104,6
2018-03-05 23:45;107,9
2018-03-06 00:00;94,45
2018-03-06 00:15;97,95
2018-03-06 00:30;94,8
2018-03-06 00:45;94,45
2018-03-06 01:00;95,05
2018-03-06 01:15;91,85
2018-03-06 01:30;93,65
2018-03-06 01:45;94,65
2018-03-06 02:00;100,25
2018-03-06 02:15;97,3
2018-03-06 02:30;96,5
2018-03-06 02:45;101,15
2018-03-06 03:00;96,25
2018-03-06 03:15;101,8
2018-03-06 03:30;94
2018-03-06 03:45;94,85
2018-03-06 04:00;91,55
2018-03-06 04:15;93,65
2018-03-06 04:30;91,95
2018-03-06 04:45;91,5
2018-03-06 05:00;94,2
2018-03-06 05:15;92,75
2018-03-06 05:30;94
2018-03-06 05:45;92,75
2018-03-06 06:00;92,75
2018-03-06 06:15;93,95
2018-03-06 06:30;94,55
2018-03-06 06:45;91,4
2018-03-06 07:00;92,15
2018-03-06 07:15;94,25
2018-03-06 07:30;148,1
2018-03-06 07:45;123,1
2018-03-06 08:00;111,55
2018-03-06 08:15;116
2018-03-06 08:30;110,55
2018-03-06 08:45;126,2
2018-03-06 09:00;121,95
2018-03-06 09:15;125,85
2018-03-06 09:30;132,9
2018-03-06 09:45;125,2
2018-03-06 10:00;137,55
2018-03-06 10:15;133,35
2018-03-06 10:30;142,05
2018-03-06 10:45;135,15
2018-03-06 11:00;142,45
2018-03-06 11:15;159,75
2018-03-06 11:30;153,65
2018-03-06 11:45;163
2018-03-06 12:00;159,65
2018-03-06 12:15;157,5
2018-03-06 12:30;153,55
2018-03-06 12:45;155,7
2018-03-06 13:00;152,85
2018-03-06 13:15;155,45
2018-03-06 13:30;153,45
2018-03-06 13:45;156,85
2018-03-06 14:00;155,7
2018-03-06 14:15;152
2018-03-06 14:30;150,65
2018-03-06 14:45;145,3
2018-03-06 15:00;146,4
2018-03-06 15:15;139,95
2018-03-06 15:30;138,65
2018-03-06 15:45;145,1
2018-03-06 16:00;135,25
2018-03-06 16:15;133,9
2018-03-06 16:30;132,2
2018-03-06 16:45;135,3
2018-03-06 17:00;135
2018-03-06 17:15;130,75
2018-03-06 17:30;137,55
2018-03-06 17:45;136,75
2018-03-06 18:00;135,8
2018-03-06 18:15;140,9
2018-03-06 18:30;137,5
2018-03-06 18:45;139,55
2018-03-06 19:00;134,2
2018-03-06 19:15;131,7
2018-03-06 19:30;131,1
2018-03-06 19:45;129,8
2018-03-06 20:00;132,55
2018-03-06 20:15;120,9
2018-03-06 20:30;122,35
2018-03-06 20:45;119,55
2018-03-06 21:00;114,15
2018-03-06 21:15;110,55
2018-03-06 21:30;109,9
2018-03-06 21:45;107,7
2018-03-06 22:00;99,9
2018-03-06 22:15;101,45
2018-03-06 22:30;100
2018-03-06 22:45;96,7
2018-03-06 23:00;102,4
2018-03-06 23:15;92,9
2018-03-06 23:30;99,1
2018-03-06 23:45;98,75
2018-03-07 00:00;94,8
2018-03-07 00:15;89,35
2018-03-07 00:30;88
2018-03-07 00:45;86,1
2018-03-07 01:00;84,35
2018-03-07 01:15;86,35
2018-03-07 01:30;83,8
2018-03-07 01:45;84,8
2018-03-07 02:00;85,7
2018-03-07 02:15;84,45
2018-03-07 02:30;85,5
2018-03-07 02:45;86,75
2018-03-07 03:00;85,3
2018-03-07 03:15;88,65
2018-03-07 03:30;85,6
2018-03-07 03:45;88
2018-03-07 04:00;85,25
2018-03-07 04:15;85,3
2018-03-07 04:30;86,6
2018-03-07 04:45;86,2
2018-03-07 05:00;87,3
2018-03-07 05:15;85,95
2018-03-07 05:30;84,95
2018-03-07 05:45;85
2018-03-07 06:00;83,2
2018-03-07 06:15;83,5
2018-03-07 06:30;81,9
2018-03-07 06:45;81
2018-03-07 07:00;85,3
2018-03-07 07:15;86
2018-03-07 07:30;141,45
2018-03-07 07:45;104,75
2018-03-07 08:00;105,5
2018-03-07 08:15;109
2018-03-07 08:30;121,65
2018-03-07 08:45;122,05
2018-03-07 09:00;134,2
2018-03-07 09:15;126,15
2018-03-07 09:30;134,1
2018-03-07 09:45;129,85
2018-03-07 10:00;138,2
2018-03-07 10:15;140,9
2018-03-07 10:30;135,9
2018-03-07 10:45;150,6
2018-03-07 11:00;141
2018-03-07 11:15;147,7
2018-03-07 11:30;147,25
2018-03-07 11:45;151,05
2018-03-07 12:00;152,6
2018-03-07 12:15;155,6
2018-03-07 12:30;155,95
2018-03-07 12:45;156,9
2018-03-07 13:00;156,2
2018-03-07 13:15;160,85
2018-03-07 13:30;163,7
2018-03-07 13:45;152,9
2018-03-07 14:00;155,05
2018-03-07 14:15;151,2
2018-03-07 14:30;149,05
2018-03-07 14:45;150,2
2018-03-07 15:00;144,2
2018-03-07 15:15;139
2018-03-07 15:30;139,6
2018-03-07 15:45;130,95
2018-03-07 16:00;125,7
2018-03-07 16:15;118,7
2018-03-07 16:30;118,75
2018-03-07 16:45;121,25
2018-03-07 17:00;119,55
2018-03-07 17:15;119,3
2018-03-07 17:30;119,6
2018-03-07 17:45;133,8
2018-03-07 18:00;135,9
2018-03-07 18:15;138,05
2018-03-07 18:30;130,75
2018-03-07 18:45;131,25
2018-03-07 19:00;134,05
2018-03-07 19:15;130,25
2018-03-07 19:30;124,8
2018-03-07 19:45;124,55
2018-03-07 20:00;124,3
2018-03-07 20:15;118,8
2018-03-07 20:30;119,3
2018-03-07 20:45;115,2
2018-03-07 21:00;112
2018-03-07 21:15;112,7
2018-03-07 21:30;107
2018-03-07 21:45;105,8
2018-03-07 22:00;95,85
2018-03-07 22:15;95,95
2018-03-07 22:30;95,65
2018-03-07 22:45;97,35
2018-03-07 23:00;106,65
2018-03-07 23:15;97,1
2018-03-07 23:30;101
2018-03-07 23:45;103,45
2018-03-08 00:00;94,8
2018-03-08 00:15;93
2018-03-08 00:30;93,2
2018-03-08 00:45;96,85
2018-03-08 01:00;92,85
2018-03-08 01:15;95,1
2018-03-08 01:30;92,2
2018-03-08 01:45;93,45
2018-03-08 02:00;93
2018-03-08 02:15;93,35
2018-03-08 02:30;97,5
2018-03-08 02:45;96,4
2018-03-08 03:00;96,75
2018-03-08 03:15;95,75
2018-03-08 03:30;94,3
2018-03-08 03:45;95,65
2018-03-08 04:00;94,35
2018-03-08 04:15;95,75
2018-03-08 04:30;95,75
2018-03-08 04:45;94,8
2018-03-08 05:00;95,45
2018-03-08 05:15;93,35
2018-03-08 05:30;95,1
2018-03-08 05:45;93,4
2018-03-08 06:00;89,05
2018-03-08 06:15;91,6
2018-03-08 06:30;92,55
2018-03-08 06:45;91,8
2018-03-08 07:00;91,15
2018-03-08 07:15;93,75
2018-03-08 07:30;148,7
2018-03-08 07:45;112,25
2018-03-08 08:00;112,8
2018-03-08 08:15;110,3
2018-03-08 08:30;116,95
2018-03-08 08:45;130,3
2018-03-08 09:00;128,3
2018-03-08 09:15;140,8
2018-03-08 09:30;135,1
2018-03-08 09:45;146,15
2018-03-08 10:00;141,25
2018-03-08 10:15;140,15
2018-03-08 10:30;146,25
2018-03-08 10:45;141,6
2018-03-08 11:00;150,3
2018-03-08 11:15;147,05
2018-03-08 11:30;152
2018-03-08 11:45;154,55
2018-03-08 12:00;154,1
2018-03-08 12:15;157,75
2018-03-08 12:30;156,85
2018-03-08 12:45;162,2
2018-03-08 13:00;159
2018-03-08 13:15;160,55
2018-03-08 13:30;164
2018-03-08 13:45;163,8
2018-03-08 14:00;159,75
2018-03-08 14:15;167,15
2018-03-08 14:30;165,65
2018-03-08 14:45;162,95
2018-03-08 15:00;149,95
2018-03-08 15:15;145
2018-03-08 15:30;148,3
2018-03-08 15:45;145,1
2018-03-08 16:00;146,5
2018-03-08 16:15;154,15
2018-03-08 16:30;143,15
2018-03-08 16:45;144,05
2018-03-08 17:00;144,05
2018-03-08 17:15;134,1
2018-03-08 17:30;137,65
2018-03-08 17:45;143
2018-03-08 18:00;145,6
2018-03-08 18:15;145,65
2018-03-08 18:30;140,5
2018-03-08 18:45;144,25
2018-03-08 19:00;150,95
2018-03-08 19:15;143,2
2018-03-08 19:30;146
2018-03-08 19:45;148,95
2018-03-08 20:00;143,85
2018-03-08 20:15;141,35
2018-03-08 20:30;134,35
2018-03-08 20:45;135,2
2018-03-08 21:00;121,6
2018-03-08 21:15;115,1
2018-03-08 21:30;113,65
2018-03-08 21:45;113,15
2018-03-08 22:00;105
2018-03-08 22:15;107,15
2018-03-08 22:30;103,8
2018-03-08 22:45;103,8
2018-03-08 23:00;108,2
2018-03-08 23:15;103,2
2018-03-08 23:30;105,15
2018-03-08 23:45;112,3
2018-03-09 00:00;100,7
2018-03-09 00:15;102,75
2018-03-09 00:30;98,75
2018-03-09 00:45;99,55
2018-03-09 01:00;101,7
2018-03-09 01:15;98,25
2018-03-09 01:30;102,7
2018-03-09 01:45;90,6
2018-03-09 02:00;92,6
2018-03-09 02:15;89,2
2018-03-09 02:30;90,9
2018-03-09 02:45;93,45
2018-03-09 03:00;90,85
2018-03-09 03:15;92,65
2018-03-09 03:30;92,3
2018-03-09 03:45;90,35
2018-03-09 04:00;92,7
2018-03-09 04:15;90,1
2018-03-09 04:30;91,05
2018-03-09 04:45;91,35
2018-03-09 05:00;89,05
2018-03-09 05:15;92,3
2018-03-09 05:30;89,35
2018-03-09 05:45;91,9
2018-03-09 06:00;90,25
2018-03-09 06:15;90,15
2018-03-09 06:30;91,4
2018-03-09 06:45;89,15
2018-03-09 07:00;91,95
2018-03-09 07:15;90,7
2018-03-09 07:30;147,4
2018-03-09 07:45;116
2018-03-09 08:00;121,65
2018-03-09 08:15;114,7
2018-03-09 08:30;116,25
2018-03-09 08:45;126,8
2018-03-09 09:00;134,65
2018-03-09 09:15;132,45
2018-03-09 09:30;147,35
2018-03-09 09:45;144,45
2018-03-09 10:00;153,3
2018-03-09 10:15;147
2018-03-09 10:30;160,7
2018-03-09 10:45;148,85
2018-03-09 11:00;166,35
2018-03-09 11:15;159,35
2018-03-09 11:30;163,9
2018-03-09 11:45;161,65
2018-03-09 12:00;167,2
2018-03-09 12:15;165,05
2018-03-09 12:30;168,05
2018-03-09 12:45;170,3
2018-03-09 13:00;164,3
2018-03-09 13:15;168,2
2018-03-09 13:30;161,35
2018-03-09 13:45;162,7
2018-03-09 14:00;159,55
2018-03-09 14:15;156,25
2018-03-09 14:30;161,6
2018-03-09 14:45;157,1
2018-03-09 15:00;161,65
2018-03-09 15:15;151,55
2018-03-09 15:30;149,1
2018-03-09 15:45;143,65
2018-03-09 16:00;137,5
2018-03-09 16:15;131,7
2018-03-09 16:30;128,5
2018-03-09 16:45;133
2018-03-09 17:00;128,6
2018-03-09 17:15;131,3
2018-03-09 17:30;135,7
2018-03-09 17:45;136,7
2018-03-09 18:00;134,4
2018-03-09 18:15;133,85
2018-03-09 18:30;131,65
2018-03-09 18:45;136,7
2018-03-09 19:00;143
2018-03-09 19:15;142,05
2018-03-09 19:30;140,5
2018-03-09 19:45;139,45
2018-03-09 20:00;124,95
2018-03-09 20:15;122,05
2018-03-09 20:30;118,45
2018-03-09 20:45;117,85
2018-03-09 21:00;116,7
2018-03-09 21:15;108,35
2018-03-09 21:30;112,75
2018-03-09 21:45;109,65
2018-03-09 22:00;107,4
2018-03-09 22:15;106,6
2018-03-09 22:30;107,9
2018-03-09 22:45;102,8
2018-03-09 23:00;102,9
2018-03-09 23:15;101,4
2018-03-09 23:30;97
2018-03-09 23:45;107,45
2018-03-10 00:00;95,4
2018-03-10 00:15;96,9
2018-03-10 00:30;94,85
2018-03-10 00:45;96,3
2018-03-10 01:00;95,75
2018-03-10 01:15;94,2
2018-03-10 01:30;95
2018-03-10 01:45;95,9
2018-03-10 02:00;91,95
2018-03-10 02:15;88,4
2018-03-10 02:30;89,35
2018-03-10 02:45;92,75
2018-03-10 03:00;90,75
2018-03-10 03:15;91,1
2018-03-10 03:30;89,65
2018-03-10 03:45;91,4
2018-03-10 04:00;90,45
2018-03-10 04:15;91
2018-03-10 04:30;91,4
2018-03-10 04:45;90,65
2018-03-10 05:00;89,45
2018-03-10 05:15;87,8
2018-03-10 05:30;89,7
2018-03-10 05:45;87,15
2018-03-10 06:00;89,75
2018-03-10 06:15;90,6
2018-03-10 06:30;87,5
2018-03-10 06:45;88,2
2018-03-10 07:00;83,9
2018-03-10 07:15;85,75
2018-03-10 07:30;81,35
2018-03-10 07:45;84,35
2018-03-10 08:00;82,4
2018-03-10 08:15;82,95
2018-03-10 08:30;84,55
2018-03-10 08:45;79,75
2018-03-10 09:00;83,25
2018-03-10 09:15;80,7
2018-03-10 09:30;81,55
2018-03-10 09:45;82,2
2018-03-10 10:00;83,25
2018-03-10 10:15;80,6
2018-03-10 10:30;78,6
2018-03-10 10:45;82,9
2018-03-10 11:00;85,35
2018-03-10 11:15;84,35
2018-03-10 11:30;87,25
2018-03-10 11:45;83,7
2018-03-10 12:00;83,9
2018-03-10 12:15;85,45
2018-03-10 12:30;88,85
2018-03-10 12:45;88,8
2018-03-10 13:00;81,9
2018-03-10 13:15;84,4
2018-03-10 13:30;87,35
2018-03-10 13:45;83,4
2018-03-10 14:00;85,85
2018-03-10 14:15;83,6
2018-03-10 14:30;87,1
2018-03-10 14:45;85,6
2018-03-10 15:00;83,7
2018-03-10 15:15;87,8
2018-03-10 15:30;87,6
2018-03-10 15:45;87,35
2018-03-10 16:00;85,25
2018-03-10 16:15;85,1
2018-03-10 16:30;83,1
2018-03-10 16:45;85,7
2018-03-10 17:00;90,65
2018-03-10 17:15;83,4
2018-03-10 17:30;87,8
2018-03-10 17:45;89,25
2018-03-10 18:00;87,2
2018-03-10 18:15;91,6
2018-03-10 18:30;92,2
2018-03-10 18:45;93,2
2018-03-10 19:00;101,95
2018-03-10 19:15;97,95
2018-03-10 19:30;101,55
2018-03-10 19:45;108,05
2018-03-10 20:00;110,35
2018-03-10 20:15;111,05
2018-03-10 20:30;109
2018-03-10 20:45;104,9
2018-03-10 21:00;104,05
2018-03-10 21:15;103,35
2018-03-10 21:30;96,6
2018-03-10 21:45;92,45
2018-03-10 22:00;91,1
2018-03-10 22:15;90,95
2018-03-10 22:30;89,5
2018-03-10 22:45;89,2
2018-03-10 23:00;95,75
2018-03-10 23:15;90,75
2018-03-10 23:30;93,9
2018-03-10 23:45;100,1
2018-03-11 00:00;88,5
2018-03-11 00:15;88,8
2018-03-11 00:30;89,7
2018-03-11 00:45;90,65
2018-03-11 01:00;89,35
2018-03-11 01:15;89,95
2018-03-11 01:30;92,35
2018-03-11 01:45;93,3
2018-03-11 02:00;95,35
2018-03-11 02:15;96,2
2018-03-11 02:30;97,85
2018-03-11 02:45;95,7
2018-03-11 03:00;95,55
2018-03-11 03:15;95,4
2018-03-11 03:30;97,05
2018-03-11 03:45;95,85
2018-03-11 04:00;95,75
2018-03-11 04:15;96,8
2018-03-11 04:30;96,05
2018-03-11 04:45;94,15
2018-03-11 05:00;93,5
2018-03-11 05:15;94,15
2018-03-11 05:30;92,7
2018-03-11 05:45;93,5
2018-03-11 06:00;93,85
2018-03-11 06:15;92,8
2018-03-11 06:30;94,1
2018-03-11 06:45;94,65
2018-03-11 07:00;90,2
2018-03-11 07:15;88,45
2018-03-11 07:30;87,7
2018-03-11 07:45;87,95
2018-03-11 08:00;84,25
2018-03-11 08:15;82,85
2018-03-11 08:30;81,3
2018-03-11 08:45;82,3
2018-03-11 09:00;82
2018-03-11 09:15;82,3
2018-03-11 09:30;81,25
2018-03-11 09:45;81,8
2018-03-11 10:00;80,75
2018-03-11 10:15;80,4
2018-03-11 10:30;83,05
2018-03-11 10:45;85,2
2018-03-11 11:00;84,65
2018-03-11 11:15;85,35
2018-03-11 11:30;85,6
2018-03-11 11:45;84,8
2018-03-11 12:00;85,55
2018-03-11 12:15;85,05
2018-03-11 12:30;84,1
2018-03-11 12:45;87,5
2018-03-11 13:00;85
2018-03-11 13:15;89,45
2018-03-11 13:30;91,75
2018-03-11 13:45;87,45
2018-03-11 14:00;86,65
2018-03-11 14:15;84,05
2018-03-11 14:30;86,55
2018-03-11 14:45;86,3
2018-03-11 15:00;85,35
2018-03-11 15:15;85,2
2018-03-11 15:30;84,7
2018-03-11 15:45;86
2018-03-11 16:00;86,15
2018-03-11 16:15;87
2018-03-11 16:30;89,25
2018-03-11 16:45;90,9
2018-03-11 17:00;92,85
2018-03-11 17:15;87,3
2018-03-11 17:30;91,9
2018-03-11 17:45;97,15
2018-03-11 18:00;97,75
2018-03-11 18:15;98,25
2018-03-11 18:30;96,55
2018-03-11 18:45;100,65
2018-03-11 19:00;111,25
2018-03-11 19:15;104,85
2018-03-11 19:30;100,15
2018-03-11 19:45;102,65
2018-03-11 20:00;103,65
2018-03-11 20:15;99,4
2018-03-11 20:30;101,75
2018-03-11 20:45;101
2018-03-11 21:00;100
2018-03-11 21:15;100,15
2018-03-11 21:30;101,3
2018-03-11 21:45;98,95
2018-03-11 22:00;96,35
2018-03-11 22:15;95,7
2018-03-11 22:30;95,8
2018-03-11 22:45;96,15
2018-03-11 23:00;103,05
2018-03-11 23:15;93,15
2018-03-11 23:30;95,95
2018-03-11 23:45;102,05

